Location: Unspecified
(40.7945°N, 0.0000°E)
Time: 20:31:13
(UTC+00:00)

Transit 2A Rocket - All Passes

Search period start: 19 January 2021 00:00
Search period end: 29 January 2021 00:00
Orbit: 592 x 911 km, 66.7° (Epoch: 18 January)

Date Brightness Start Highest point End Pass type
(mag) Time Alt. Az. Time Alt. Az. Time Alt. Az.
19 Jan - 12:45:46 10° S 12:51:13 53° ESE 12:56:14 10° NE daylight
19 Jan - 14:29:40 10° WSW 14:34:01 24° NW 14:38:06 10° N daylight
19 Jan - 21:30:14 10° NNW 21:34:14 33° NE 21:38:07 10° ESE night (unlit)
19 Jan - 23:13:07 10° WNW 23:16:33 23° WSW 23:19:55 10° SSW night (unlit)
20 Jan - 12:03:54 10° S 12:08:44 31° ESE 12:13:15 10° NE daylight
20 Jan - 13:46:06 10° WSW 13:51:13 38° NW 13:55:57 10° NNE daylight
20 Jan - 20:48:09 10° N 20:51:23 19° NE 20:54:33 10° E night (unlit)
20 Jan - 22:30:00 10° NW 22:34:09 44° WSW 22:38:13 10° S night (unlit)
21 Jan - 11:22:46 10° SSE 11:26:21 18° ESE 11:29:46 10° ENE daylight
21 Jan - 13:03:00 10° SW 13:08:32 64° WNW 13:13:34 10° NNE daylight
21 Jan - 14:50:16 10° WNW 14:51:57 11° NW 14:53:37 10° NNW daylight
21 Jan - 20:06:40 10° NNE 20:08:25 12° NE 20:10:07 10° ENE visible
21 Jan - 21:47:15 10° NNW 21:51:39 88° WSW 21:55:56 10° SSE night (unlit)
22 Jan - 12:20:21 10° SSW 12:25:55 76° ESE 12:31:02 10° NNE daylight
22 Jan - 14:05:22 10° W 14:08:57 18° NW 14:12:21 10° N daylight
22 Jan - 21:04:46 10° NNW 21:09:02 48° NE 21:13:10 10° SE night (unlit)
22 Jan - 22:48:36 10° WNW 22:51:04 15° WSW 22:53:31 10° SW night (unlit)
23 Jan - 11:38:08 10° S 11:43:24 43° ESE 11:48:14 10° NE daylight
23 Jan - 13:21:27 10° WSW 13:26:04 28° NW 13:30:22 10° N daylight
23 Jan - 20:22:30 10° N 20:26:16 27° NE 20:29:57 10° ESE visible
23 Jan - 22:05:00 10° NW 22:08:44 29° WSW 22:12:26 10° S night (unlit)
24 Jan - 10:56:29 10° SSE 11:00:57 25° ESE 11:05:08 10° NE daylight
24 Jan - 12:38:04 10° SW 12:43:19 45° NW 12:48:09 10° NNE daylight
24 Jan - 19:40:35 10° N 19:43:23 16° NE 19:46:08 10° E visible
24 Jan - 21:22:02 10° NW 21:26:18 57° WSW 21:30:29 10° SSE night (unlit)
25 Jan - 10:15:49 10° SE 10:18:35 14° ESE 10:21:16 10° ENE daylight
25 Jan - 11:55:07 10° SSW 12:00:39 77° WNW 12:05:43 10° NNE daylight
25 Jan - 13:41:28 10° WNW 13:43:56 13° NW 13:46:19 10° NNW daylight
25 Jan - 20:39:24 10° NNW 20:43:45 74° ENE 20:48:02 10° SE visible
26 Jan - 11:12:37 10° SSW 11:18:05 62° ESE 11:23:05 10° NE daylight
26 Jan - 12:57:02 10° W 13:00:58 21° NW 13:04:42 10° N daylight
26 Jan - 19:56:59 10° NNW 20:01:06 38° NE 20:05:07 10° SE visible
26 Jan - 21:40:14 10° WNW 21:43:17 19° WSW 21:46:19 10° SSW night (unlit)
27 Jan - 10:30:35 10° S 10:35:35 35° ESE 10:40:13 10° NE daylight
27 Jan - 12:13:18 10° WSW 12:18:09 33° NW 12:22:38 10° NNE daylight
27 Jan - 19:14:49 10° N 19:18:18 22° NE 19:21:42 10° ESE visible
27 Jan - 20:56:56 10° NW 21:00:55 36° WSW 21:04:51 10° S visible
28 Jan - 09:49:12 10° SSE 09:53:10 20° ESE 09:56:54 10° ENE daylight
28 Jan - 11:30:05 10° SW 11:35:25 54° WNW 11:40:20 10° NNE daylight
28 Jan - 18:33:06 10° NNE 18:35:22 14° NE 18:37:35 10° ENE visible
28 Jan - 20:14:06 10° NNW 20:18:27 73° WSW 20:22:42 10° SSE visible
